Location: Baia Mare
(47.6567°N, 23.5850°E)
Time: 13:49:34
(UTC+03:00)

ISS - Pass Details

Date: 06 July 2019
Orbit: 409 x 418 km, 51.6° (Epoch: 21 July)

Event Time Altitude Azimuth Distance (km) Brightness Sun altitude
Exits shadow 02:46:35 18° 124° (SE) 1,088 -1.8 -17.5°
Drops below altitude 10° 02:48:25 10° 92° (E) 1,477 -0.8 -17.4°
Sets 02:50:54 0° 73° (ENE) 2,341 0.6 -17.3°
